Date String (YYYY-MM-DD hh:mm:ss) UTC,Instrument flags,absolute air pressure of the measurement (hPa),sample flow rate (lpm),inlet stack bypass flow (lpm),air temperature of the measurement (°C),ambient temperature measured by the external sensor (°C),aerosol sample conditioner tube jacket temperature (°C),OPC LED temperature (°C),internal box temperature (°C),relative humidity of the measurement (%),span deviation,mass concentration of particles derived from Lorenz-Mie calculation of OPC scattering (μg/m³),mass concentration of particles derived from Lorenz-Mie calculation of OPC scattering (μg/m³),mass concentration of particles derived from Lorenz-Mie calculation of OPC scattering (μg/m³)
DateTimeUTC,F1_M11,P_M11,Q1_M11,Q2_M11,T1_M11,T2_M11,T3_M11,T4_M11,T5_M11,U1_M11,ZSPAN_M11,X2_M11,X0_M11,X1_M11
2023-12-21 09:00:00,SystemResetWarning,0830.0,4.99,000.00,024.1,023.1,000.0,032.4,025.5,13.3,0000.0,0003.11,0007.55,0002.38
2023-12-21 09:01:00,SystemResetWarning,0830.1,5.00,000.00,024.1,023.1,000.0,032.4,025.5,13.3,0000.0,0003.12,0007.41,0002.39
2023-12-21 09:02:00,SystemResetWarning,0830.0,5.00,000.00,024.1,023.1,000.0,032.4,025.5,13.3,0000.0,0003.13,0007.63,0002.40
2023-12-21 09:03:00,SystemResetWarning,0830.0,5.00,000.00,024.1,023.1,000.0,032.4,025.5,13.3,0000.0,0003.17,0007.79,0002.41
2023-12-21 09:04:00,SystemResetWarning,0830.0,5.00,000.00,024.1,023.2,000.0,032.4,025.5,13.3,0000.0,0003.25,0007.90,0002.43
2023-12-21 09:05:00,SystemResetWarning,0830.0,5.00,000.00,024.1,023.2,000.0,032.4,025.5,13.3,0000.0,0003.25,0007.89,0002.43
2023-12-21 09:06:00,SystemResetWarning,0830.0,5.00,000.00,024.1,023.2,000.0,032.4,025.5,13.3,0000.0,0003.27,0008.20,0002.45
2023-12-21 09:07:00,SystemResetWarning,0830.0,5.00,000.00,024.1,023.2,000.0,032.4,025.5,13.3,0000.0,0003.28,0008.27,0002.48
2023-12-21 09:08:00,SystemResetWarning,0830.0,5.00,000.00,024.1,023.2,000.0,032.4,025.5,13.3,0000.0,0003.29,0008.69,0002.48
2023-12-21 09:09:00,SystemResetWarning,0830.0,5.00,000.00,024.1,023.2,000.0,032.4,025.5,13.3,0000.0,0003.27,0008.81,0002.50
2023-12-21 09:10:00,SystemResetWarning,0830.0,5.00,000.00,024.1,023.2,000.0,032.4,025.5,13.4,0000.0,0003.30,0008.65,0002.50
2023-12-21 09:11:00,SystemResetWarning,0830.0,5.01,000.00,024.1,023.2,000.0,032.4,025.4,13.4,0000.0,0003.30,0008.69,0002.49
2023-12-21 09:12:00,SystemResetWarning,0830.0,5.00,000.00,024.1,023.2,000.0,032.4,025.4,13.4,0000.0,0003.29,0009.05,0002.49
2023-12-21 09:13:00,SystemResetWarning,0830.0,5.00,000.00,024.0,023.2,000.0,032.4,025.3,13.5,0000.0,0003.30,0008.82,0002.51
2023-12-21 09:14:00,SystemResetWarning,0830.0,5.00,000.00,024.0,023.2,000.0,032.4,025.4,13.5,0000.0,0003.28,0008.98,0002.52
2023-12-21 09:15:00,SystemResetWarning,0830.0,4.99,000.00,024.0,023.1,000.0,032.4,025.4,13.5,0000.0,0003.22,0009.41,0002.52
2023-12-21 09:16:00,SystemResetWarning,0830.0,5.00,000.00,024.0,023.1,000.0,032.4,025.4,13.4,0000.0,0003.22,0009.90,0002.52
2023-12-21 09:17:00,SystemResetWarning,0830.0,5.00,000.00,024.0,023.1,000.0,032.4,025.4,13.4,0000.0,0003.19,0010.80,0002.52
2023-12-21 09:18:00,SystemResetWarning,0830.0,5.00,000.00,024.0,023.2,000.0,032.4,025.4,13.4,0000.0,0003.19,0011.48,0002.52
2023-12-21 09:19:00,SystemResetWarning,0830.0,5.00,000.00,024.0,023.2,000.0,032.4,025.4,13.4,0000.0,0003.19,0011.30,0002.52
2023-12-21 09:20:00,SystemResetWarning,0830.0,5.00,000.00,024.0,023.2,000.0,032.4,025.5,13.5,0000.0,0003.19,0011.13,0002.50
2023-12-21 09:21:00,SystemResetWarning,0830.0,5.01,000.00,024.1,023.2,000.0,032.4,025.5,13.5,0000.0,0003.20,0011.20,0002.51
2023-12-21 09:22:00,SystemResetWarning,0830.0,5.00,000.00,024.1,023.2,000.0,032.4,025.5,13.4,0000.0,0003.21,0010.75,0002.51
2023-12-21 09:23:00,SystemResetWarning,0830.1,5.00,000.00,024.1,023.3,000.0,032.4,025.5,13.4,0000.0,0003.19,0010.87,0002.50
2023-12-21 09:24:00,SystemResetWarning,0830.1,4.99,000.00,024.1,023.3,000.0,032.4,025.5,13.4,0000.0,0003.20,0011.53,0002.50
2023-12-21 09:25:00,SystemResetWarning,0830.0,5.00,000.00,024.1,023.3,000.0,032.4,025.5,13.4,0000.0,0003.20,0011.02,0002.52
2023-12-21 09:26:00,SystemResetWarning,0830.0,4.99,000.00,024.1,023.3,000.0,032.4,025.5,13.4,0000.0,0003.18,0010.42,0002.52
2023-12-21 09:27:00,SystemResetWarning,0830.0,4.99,000.00,024.1,023.3,000.0,032.4,025.5,13.4,0000.0,0003.16,0010.14,0002.52
2023-12-21 09:28:00,SystemResetWarning,0830.0,5.00,000.00,024.1,023.3,000.0,032.4,025.5,13.4,0000.0,0003.17,0009.34,0002.54
2023-12-21 09:29:00,SystemResetWarning,0830.1,5.01,000.00,024.1,023.3,000.0,032.4,025.5,13.4,0000.0,0003.16,0008.72,0002.53
2023-12-21 09:30:00,SystemResetWarning,0830.1,5.00,000.00,024.1,023.3,000.0,032.4,025.5,13.3,0000.0,0003.16,0008.47,0002.54
2023-12-21 09:31:00,SystemResetWarning,0830.1,5.00,000.00,024.1,023.3,000.0,032.4,025.5,13.3,0000.0,0003.18,0008.74,0002.55
2023-12-21 09:32:00,SystemResetWarning,0830.0,4.99,000.00,024.1,023.3,000.0,032.4,025.5,13.3,0000.0,0003.17,0008.63,0002.55
2023-12-21 09:33:00,SystemResetWarning,0830.0,4.99,000.00,024.1,023.3,000.0,032.4,025.5,13.3,0000.0,0003.17,0008.56,0002.56
2023-12-21 09:34:00,SystemResetWarning,0830.1,4.99,000.00,024.1,023.3,000.0,032.4,025.5,13.3,0000.0,0003.20,0008.08,0002.57
2023-12-21 09:35:00,SystemResetWarning,0830.1,5.00,000.00,024.1,023.3,000.0,032.4,025.5,13.3,0000.0,0003.21,0008.02,0002.56
2023-12-21 09:36:00,SystemResetWarning,0830.1,5.00,000.00,024.1,023.2,000.0,032.4,025.5,13.2,0000.0,0003.27,0008.49,0002.57
2023-12-21 09:37:00,SystemResetWarning,0830.1,5.00,000.00,024.1,023.3,000.0,032.4,025.5,13.2,0000.0,0003.32,0009.00,0002.59
2023-12-21 09:38:00,SystemResetWarning,0830.0,5.00,000.00,024.1,023.3,000.0,032.4,025.5,13.2,0000.0,0003.38,0008.93,0002.62
2023-12-21 09:39:00,SystemResetWarning,0830.1,5.00,000.00,024.1,023.3,000.0,032.4,025.5,13.2,0000.0,0003.41,0008.57,0002.62
2023-12-21 09:40:00,SystemResetWarning,0830.0,5.00,000.00,024.1,023.3,000.0,032.4,025.5,13.2,0000.0,0003.44,0008.41,0002.63
2023-12-21 09:41:00,SystemResetWarning,0830.1,5.00,000.00,024.1,023.3,000.0,032.4,025.5,13.2,0000.0,0003.50,0008.63,0002.66
2023-12-21 09:42:00,SystemResetWarning,0830.0,4.99,000.00,024.1,023.3,000.0,032.4,025.5,13.2,0000.0,0003.50,0008.80,0002.67
2023-12-21 09:43:00,SystemResetWarning,0830.1,4.99,000.00,024.1,023.3,000.0,032.4,025.5,13.2,0000.0,0003.48,0008.76,0002.66
2023-12-21 09:44:00,SystemResetWarning,0830.1,5.00,000.00,024.1,023.2,000.0,032.4,025.5,13.3,0000.0,0003.45,0009.02,0002.67
2023-12-21 09:45:00,SystemResetWarning,0830.1,5.00,000.00,024.1,023.2,000.0,032.4,025.5,13.3,0000.0,0003.45,0009.16,0002.67
2023-12-21 09:46:00,SystemResetWarning,0830.1,5.01,000.00,024.1,023.2,000.0,032.4,025.5,13.2,0000.0,0003.48,0008.92,0002.69
2023-12-21 09:47:00,SystemResetWarning,0830.1,5.01,000.00,024.1,023.2,000.0,032.4,025.5,13.2,0000.0,0003.47,0008.44,0002.69
2023-12-21 09:48:00,SystemResetWarning,0830.1,5.00,000.00,024.1,023.2,000.0,032.4,025.5,13.3,0000.0,0003.44,0007.88,0002.68
2023-12-21 09:49:00,SystemResetWarning,0830.1,4.99,000.00,024.1,023.2,000.0,032.4,025.5,13.3,0000.0,0003.39,0007.75,0002.65
2023-12-21 09:50:00,SystemResetWarning,0830.1,5.00,000.00,024.1,023.2,000.0,032.4,025.5,13.3,0000.0,0003.38,0007.77,0002.64
2023-12-21 09:51:00,SystemResetWarning,0830.1,5.00,000.00,024.1,023.2,000.0,032.4,025.5,13.3,0000.0,0003.41,0007.97,0002.63
2023-12-21 09:52:00,SystemResetWarning,0830.1,5.01,000.00,024.1,023.2,000.0,032.4,025.5,13.3,0000.0,0003.38,0008.35,0002.59
2023-12-21 09:53:00,SystemResetWarning,0830.1,5.00,000.00,024.1,023.2,000.0,032.4,025.5,13.3,0000.0,0003.34,0008.03,0002.57
2023-12-21 09:54:00,SystemResetWarning,0830.1,5.00,000.00,024.1,023.2,000.0,032.4,025.5,13.3,0000.0,0003.34,0007.99,0002.58
2023-12-21 09:55:00,SystemResetWarning,0830.1,5.00,000.00,024.1,023.2,000.0,032.4,025.5,13.3,0000.0,0003.39,0007.81,0002.58
2023-12-21 09:56:00,SystemResetWarning,0830.1,5.00,000.00,024.1,023.2,000.0,032.4,025.5,13.3,0000.0,0003.39,0007.80,0002.57
2023-12-21 09:57:00,SystemResetWarning,0830.1,4.98,000.00,024.1,023.2,000.0,032.4,025.5,13.3,0000.0,0003.35,0007.68,0002.56
2023-12-21 09:58:00,SystemResetWarning,0830.2,5.00,000.00,024.1,023.2,000.0,032.4,025.5,13.3,0000.0,0003.35,0008.13,0002.55
2023-12-21 09:59:00,SystemResetWarning,0830.2,5.01,000.00,024.1,023.2,000.0,032.4,025.5,13.4,0000.0,0003.33,0008.30,0002.54
